Merrill, WI

2:28 AM CDT on October 01, 2016 (GMT -0500)
Merrill Municipal

Weather History for KRRL - August, 2013

Change the Weather History Date:

Saturday, August 3, 2013

  Actual Average Record
Temperature  
Mean Temperature 58 °F -  
Max Temperature 72 °F 79 °F 96 °F (1916)
Min Temperature 44 °F 55 °F 40 °F (1978)
Degree Days  
Heating Degree Days 7    
Growing Degree Days 8 (Base 50)    
Moisture  
Dew Point 49 °F    
Average Humidity 73    
Maximum Humidity 99    
Minimum Humidity 44    
Precipitation  
Precipitation 0.00 in - - ()
Sea Level Pressure  
Sea Level Pressure 30.10 in    
Wind  
Wind Speed 3 mph (NNW)    
Max Wind Speed 14 mph    
Max Gust Speed 20 mph    
Visibility 9 miles    
Events      
Averages and records for this station are not official NWS values.
T = Trace of Precipitation, MM = Missing Value Source: NWS Daily Summary

Daily Weather History Graph

Daily Weather History Graph

Search for Another Location

Airport or City:

Trip Planner

Search our weather history database for the weather conditions in past years. The results will help you decide how hot, cold, wet, or windy it might be!

Date:

Astronomy

Aug. 03, 2013 Rise Set
Actual Time 5:46 AM CDT 8:22 PM CDT
Civil Twilight 5:12 AM CDT 8:56 PM CDT
Nautical Twilight 4:30 AM CDT 9:38 PM CDT
Astronomical Twilight 3:41 AM CDT 10:26 PM CDT
Moon 2:53 AM CDT (8/3) 6:06 PM CDT (8/3)
Length of Visible Light 15h 43m
Length of Day
14h 36m
Waning Crescent, 9% of the Moon is Illuminated
Aug 3
Waning Crescent
Aug 6
New
Aug 14
First Quarter
Aug 20
Full
Aug 28
Last Quarter

Hourly Weather History & Observations

Time (CDT) Temp. Dew Point Humidity Pressure Visibility Wind Dir Wind Speed Gust Speed Precip Events Conditions
12:15 AM 50.0 °F 48.4 °F 94% 30.02 in 10.0 mi Calm Calm - N/A   Clear
12:35 AM 49.8 °F 48.9 °F 97% 30.02 in 1.2 mi Calm Calm - N/A   Mist
12:55 AM 48.9 °F 48.4 °F 98% 30.03 in 5.0 mi Calm Calm - N/A   Clear
1:15 AM 47.7 °F 46.8 °F 97% 30.03 in 7.0 mi Calm Calm - N/A   Scattered Clouds
1:35 AM 47.8 °F 47.5 °F 99% 30.03 in 10.0 mi Calm Calm - N/A   Scattered Clouds
1:55 AM 48.4 °F 47.8 °F 98% 30.03 in 2.0 mi Calm Calm - N/A   Clear
2:15 AM 47.8 °F 47.3 °F 98% 30.04 in 10.0 mi Calm Calm - N/A   Clear
2:35 AM 48.6 °F 48.0 °F 98% 30.04 in 10.0 mi Calm Calm - N/A   Clear
2:55 AM 47.8 °F 47.1 °F 97% 30.04 in 10.0 mi Calm Calm - N/A   Clear
3:15 AM 46.6 °F 46.0 °F 98% 30.05 in 7.0 mi Calm Calm - N/A   Clear
3:35 AM 46.9 °F 46.8 °F 99% 30.05 in 10.0 mi Calm Calm - N/A   Clear
3:55 AM 47.3 °F 46.9 °F 99% 30.05 in 10.0 mi Calm Calm - N/A   Clear
4:15 AM 46.6 °F 45.7 °F 97% 30.05 in 7.0 mi Calm Calm - N/A   Clear
4:35 AM 47.5 °F 46.9 °F 98% 30.05 in 10.0 mi Calm Calm - N/A   Clear
4:55 AM 46.9 °F 46.6 °F 99% 30.06 in 4.0 mi Calm Calm - N/A   Clear
5:15 AM 44.4 °F 44.2 °F 99% 30.07 in 1.0 mi Calm Calm - N/A   Mist
5:35 AM 46.0 °F 45.5 °F 98% 30.07 in 10.0 mi Calm Calm - N/A   Clear
5:55 AM 45.7 °F 45.5 °F 99% 30.08 in 5.0 mi Calm Calm - N/A   Clear
6:15 AM 44.8 °F 44.2 °F 98% 30.09 in 5.0 mi Calm Calm - N/A   Clear
6:35 AM 48.0 °F 46.9 °F 96% 30.09 in 10.0 mi Calm Calm - N/A   Clear
6:55 AM 49.3 °F 48.0 °F 95% 30.08 in 10.0 mi Calm Calm - N/A   Clear
7:15 AM 52.7 °F 50.2 °F 91% 30.09 in 10.0 mi Calm Calm - N/A   Clear
7:35 AM 54.5 °F 51.3 °F 89% 30.09 in 10.0 mi Calm Calm - N/A   Clear
7:55 AM 56.3 °F 52.5 °F 87% 30.09 in 10.0 mi North 3.5 mph - N/A   Clear
8:15 AM 58.5 °F 53.4 °F 83% 30.09 in 10.0 mi Calm Calm - N/A   Clear
8:35 AM 61.5 °F 52.7 °F 73% 30.09 in 10.0 mi North 3.5 mph - N/A   Clear
8:55 AM 62.8 °F 52.2 °F 68% 30.09 in 10.0 mi NW 4.6 mph - N/A   Clear
9:15 AM 64.2 °F 50.9 °F 62% 30.09 in 10.0 mi North 4.6 mph - N/A   Clear
9:35 AM 64.9 °F 50.4 °F 59% 30.09 in 10.0 mi North 4.6 mph - N/A   Clear
9:55 AM 66.4 °F 50.7 °F 57% 30.10 in 10.0 mi NW 5.8 mph - N/A   Clear
10:15 AM 67.3 °F 51.3 °F 56% 30.10 in 10.0 mi WNW 10.4 mph - N/A   Clear
10:35 AM 67.8 °F 50.2 °F 53% 30.11 in 10.0 mi NNW 5.8 mph - N/A   Clear
10:55 AM 69.4 °F 50.7 °F 51% 30.10 in 10.0 mi NW 8.1 mph - N/A   Scattered Clouds
11:15 AM 68.7 °F 49.5 °F 50% 30.10 in 10.0 mi NNW 8.1 mph - N/A   Scattered Clouds
11:55 AM 69.1 °F 47.5 °F 46% 30.11 in 10.0 mi NW 12.7 mph 19.6 mph N/A   Scattered Clouds
12:15 PM 68.5 °F 48.9 °F 49% 30.11 in 10.0 mi NW 6.9 mph 18.4 mph N/A   Scattered Clouds
12:55 PM 68.7 °F 48.9 °F 49% 30.12 in 10.0 mi North 8.1 mph - N/A   Mostly Cloudy
1:15 PM 69.4 °F 50.4 °F 51% 30.12 in 10.0 mi WNW 8.1 mph - N/A   Mostly Cloudy
1:35 PM 68.9 °F 48.7 °F 49% 30.12 in 10.0 mi North 6.9 mph - N/A   Scattered Clouds
1:55 PM 69.3 °F 48.7 °F 48% 30.11 in 10.0 mi NNW 5.8 mph - N/A   Scattered Clouds
2:15 PM 69.6 °F 50.0 °F 50% 30.11 in 10.0 mi North 8.1 mph - N/A   Mostly Cloudy
2:35 PM 71.1 °F 50.5 °F 48% 30.12 in 10.0 mi NW 9.2 mph - N/A   Mostly Cloudy
2:55 PM 70.0 °F 48.6 °F 46% 30.11 in 10.0 mi NNW 6.9 mph - N/A   Mostly Cloudy
3:15 PM 69.1 °F 50.2 °F 51% 30.11 in 10.0 mi NW 6.9 mph - N/A   Mostly Cloudy
3:35 PM 69.1 °F 50.9 °F 52% 30.12 in 10.0 mi NW 10.4 mph - N/A   Overcast
3:55 PM 71.8 °F 51.4 °F 49% 30.11 in 10.0 mi WNW 8.1 mph - N/A   Scattered Clouds
4:15 PM 72.5 °F 49.8 °F 45% 30.10 in 10.0 mi WNW 10.4 mph - N/A   Mostly Cloudy
4:35 PM 68.7 °F 49.8 °F 51% 30.11 in 10.0 mi North 5.8 mph 17.3 mph N/A   Mostly Cloudy
4:55 PM 71.4 °F 50.4 °F 47% 30.11 in 10.0 mi NW 8.1 mph - N/A   Clear
5:15 PM 71.1 °F 49.6 °F 47% 30.10 in 10.0 mi NNW 6.9 mph - N/A   Mostly Cloudy
5:35 PM 70.2 °F 48.6 °F 46% 30.11 in 10.0 mi North 6.9 mph - N/A   Mostly Cloudy
5:55 PM 71.4 °F 50.7 °F 48% 30.11 in 10.0 mi North 9.2 mph - N/A   Mostly Cloudy
6:15 PM 71.4 °F 48.2 °F 44% 30.11 in 10.0 mi North 13.8 mph - N/A   Scattered Clouds
6:35 PM 70.7 °F 48.0 °F 44% 30.11 in 10.0 mi NNW 8.1 mph - N/A   Clear
6:55 PM 69.4 °F 49.6 °F 49% 30.12 in 10.0 mi North 6.9 mph - N/A   Clear
7:15 PM 68.0 °F 49.5 °F 51% 30.12 in 10.0 mi North 6.9 mph - N/A   Scattered Clouds
7:35 PM 66.4 °F 50.9 °F 57% 30.12 in 10.0 mi North 4.6 mph - N/A   Clear
7:55 PM 64.2 °F 51.8 °F 64% 30.13 in 10.0 mi North 5.8 mph - N/A   Clear
8:15 PM 62.1 °F 50.9 °F 67% 30.13 in 10.0 mi North 4.6 mph - N/A   Clear
8:35 PM 59.9 °F 50.2 °F 70% 30.13 in 10.0 mi NNE 4.6 mph - N/A   Clear
8:55 PM 59.5 °F 50.2 °F 71% 30.14 in 10.0 mi NNE 3.5 mph - N/A   Clear
9:35 PM 56.7 °F 49.8 °F 78% 30.16 in 10.0 mi North 3.5 mph - N/A   Clear
9:55 PM 56.1 °F 50.0 °F 80% 30.17 in 10.0 mi North 3.5 mph - N/A   Clear
10:15 PM 54.1 °F 49.1 °F 83% 30.17 in 10.0 mi Calm Calm - N/A   Clear
10:35 PM 52.9 °F 48.9 °F 86% 30.18 in 10.0 mi Calm Calm - N/A   Clear
10:55 PM 51.1 °F 48.4 °F 90% 30.18 in 10.0 mi Calm Calm - N/A   Clear
11:15 PM 51.8 °F 48.9 °F 90% 30.19 in 10.0 mi Calm Calm - N/A   Clear
11:35 PM 49.8 °F 47.5 °F 92% 30.19 in 10.0 mi NNE 3.5 mph - N/A   Clear
11:55 PM 51.3 °F 49.3 °F 93% 30.19 in 10.0 mi Calm Calm - N/A   Clear